SCP
0 0 0 0 0 0 0 0 0 0 0 0 0 0 0 0 0 0 0 0 0 0 0 0 0 0 0 0 0 0 0 0
0 0 0 0 0 0 0 0 0 0 0 0 0 0 0 0 0 0 0 0 0 0 0 0 0 0 0 0 0 0 0 0
0 0 0 0 0 0 0 0 0 0 0 0 0 0 0 0 0 0 0 0 0 0 0 0 0 0 0 0 0 0 0 0
0 0 0 0 0 0 0 0 0 0 0 0 0 0 0 0 0 0 0 0 0 0 0 0 0 0 0 0 0 0 0 0
0 0 0 0 0 0 0 0 0 0 0 0 0 0 0 0 0 0 0 0 0 0 0 0 0 0 0 0 0 0 0 0
0 0 0 0 0 0 0 0 0 0 0 0 0 0 0 0 0 0 0 0 0 0 0 0 0 0 0 0 0 0 0 0
0 0 0 0 0 0 0 0 0 0 0 0 0 0 0 0 0 0 0 0 0 0 0 0 0 0 0 0 0 0 0 0
0 0 0 0 0 0 0 0 0 0 0 0 0 0 0 0 0 0 0 0 0 0 0 0 0 0 0 0 0 0 0 0
0 0 0 0 0 0 0 0 0 0 0 0 0 0 0 0 0 0 0 0 0 0 0 0 0 0 0 0 0 0 0 0
0 0 0 0 0 0 0 0 0 0 0 0 0 0 0 0 0 0 0 0 0 0 0 0 0 0 0 0 0 0 0 0
0 0 0 0 0 0 0 0 0 0 0 0 0 0 0 0 0 0 0 0 0 0 0 0 0 0 0 0 0 0 0 0
0 0 0 0 0 0 0 0 0 0 0 0 0 0 0 0 0 0 0 0 0 0 0 0 0 0 0 0 0 0 0 0
0 0 0 0 0 0 0 0 0 0 0 0 0 0 0 0 0 0 0 0 0 0 0 0 0 0 0 0 0 0 0 0
0 0 0 0 0 0 0 0 0 0 0 0 0 0 0 0 0 0 0 0 0 0 0 0 0 0 0 0 0 0 0 0
0 0 0 0 0 0 0 0 0 0 0 0 0 0 0 0 0 0 0 0 0 0 0 0 0 0 0 0 0 0 0 0
0 0 0 0 0 0 0 0 0 0 0 0 0 0 0 0 0 0 0 0 0 0 0 0 0 0 0 0 0 0 0 0
0 0 0 0 0 0 0 0 0 0 0 0 0 0 0 0 0 0 0 0 0 0 0 0 0 0 0 0 0 0 0 0
0 0 0 0 0 0 0 0 0 0 0 0 0 0 0 0 0 0 0 0 0 0 0 0 0 0 0 0 0 0 0 0
0 0 0 0 0 0 0 0 0 0 0 0 0 0 0 0 0 0 0 0 0 0 0 0 0 0 0 0 0 0 0 0
0 0 0 0 0 0 0 0 0 0 0 0 0 0 0 0 0 0 0 0 0 0 0 0 0 0 0 0 0 0 0 0
Wind_Speed_500mb
45 50 54 59 62 59 61 59 55 52 45 40 34 31 27 25 23 20 17 16 18 15 9 3 7 9 4 7 16 20 22 24
51 52 49 55 59 60 61 59 56 52 48 42 37 32 28 25 24 21 18 18 20 18 13 7 6 11 6 11 17 25 25 23
55 57 56 59 60 63 62 59 55 53 49 44 38 34 29 28 26 23 20 19 20 19 16 11 10 15 13 14 15 23 23 25
55 58 59 61 61 62 62 58 57 56 52 48 43 37 32 30 27 25 23 20 20 19 18 16 13 15 19 16 14 21 24 22
56 62 64 62 64 66 64 61 58 55 54 50 44 38 34 31 28 27 24 22 21 20 19 19 16 18 23 21 15 18 24 18
62 62 64 65 64 66 65 63 61 59 56 51 45 41 38 35 31 29 26 24 23 21 21 22 20 20 27 27 23 18 19 22
64 65 68 69 69 67 64 64 63 61 58 53 49 45 42 38 34 30 28 27 25 23 22 23 23 19 28 30 28 25 22 22
71 71 70 69 66 66 66 63 63 62 60 56 51 49 46 41 37 32 30 28 27 27 26 25 26 24 23 28 31 34 30 27
68 70 69 65 65 64 65 64 64 64 62 58 55 51 48 43 38 35 33 30 28 28 27 27 27 29 29 28 30 30 31 33
58 69 70 69 67 64 62 62 63 64 62 58 54 52 49 46 41 37 36 33 31 31 31 30 30 31 35 33 31 31 31 31
57 63 68 71 68 66 66 63 64 61 59 55 52 49 48 44 42 40 37 34 33 32 32 30 29 28 34 39 37 35 33 31
60 65 71 71 72 69 65 63 59 57 55 53 51 47 44 43 43 40 38 36 35 33 32 29 29 29 31 39 43 38 36 34
62 67 67 68 71 69 67 61 58 57 55 52 49 46 45 44 44 43 40 37 35 33 32 30 28 26 26 32 38 40 39 34
64 66 67 70 69 69 67 63 60 55 52 51 48 44 42 43 44 43 40 37 35 33 28 25 21 19 23 27 32 33 30 31
77 78 76 71 68 63 63 59 54 53 52 48 45 42 42 42 40 39 38 36 34 30 28 20 18 16 17 19 25 28 29 30
87 87 84 79 71 64 58 55 57 54 50 46 45 40 43 41 39 38 37 34 31 30 27 24 21 19 15 15 23 25 25 26
89 87 84 80 75 67 61 61 61 54 49 45 42 43 42 41 41 40 35 32 30 29 28 25 23 19 15 14 19 24 20 21
93 87 84 80 77 75 72 65 53 42 46 48 46 45 43 41 37 36 35 31 29 29 30 28 26 22 19 18 21 20 22 23
91 90 87 84 82 78 76 67 46 57 54 49 46 44 41 37 33 29 27 27 26 26 24 26 27 27 24 24 22 20 22 21
95 94 93 92 87 80 73 69 66 58 51 45 40 37 33 31 28 25 24 23 21 20 19 19 21 23 29 32 31 26 24 21
Wind_Direction_500mb
199 195 200 197 196 194 197 196 197 199 201 202 202 206 206 203 203 203 200 190 190 182 174 142 159 172 184 167 162 165 155 160
189 195 199 196 195 192 195 197 197 199 200 200 203 205 206 202 202 205 199 193 195 191 186 176 159 167 160 141 152 158 159 161
190 191 192 195 194 194 197 200 199 200 200 200 203 205 205 203 203 202 202 196 195 197 193 184 177 173 161 144 152 156 158 173
190 190 192 194 195 197 200 202 201 201 201 201 202 203 203 205 205 200 203 199 195 199 198 194 192 178 174 163 160 165 167 168
196 196 198 200 198 200 202 205 204 203 203 204 204 203 204 206 206 204 205 203 199 200 203 200 197 190 180 177 165 166 175 175
200 201 201 201 201 202 204 205 204 204 205 205 205 205 206 207 209 206 206 207 206 203 208 205 204 206 193 185 186 172 171 176
207 206 206 204 202 203 204 205 203 204 206 206 206 206 210 210 211 212 211 211 212 207 209 211 209 214 205 195 197 194 191 189
214 212 210 210 207 204 204 204 203 205 206 207 208 210 213 214 214 215 218 218 216 215 212 213 213 216 214 206 213 212 211 214
222 218 215 210 210 208 207 205 204 205 206 207 209 213 216 218 219 219 220 223 223 222 219 217 217 215 220 213 217 221 224 218
232 224 214 211 209 207 208 207 206 206 206 209 212 215 218 221 221 220 222 223 224 224 223 220 220 219 220 218 219 224 230 234
223 219 214 210 208 206 207 207 207 207 209 211 214 216 220 221 222 222 222 224 224 227 229 227 226 228 230 226 220 226 232 236
218 214 210 207 206 205 206 206 208 209 210 211 214 214 216 217 219 222 221 220 222 223 228 229 232 234 227 225 226 228 232 238
212 207 204 204 201 202 204 202 203 205 206 206 208 207 209 211 213 215 217 217 219 221 226 230 232 233 229 224 224 226 231 234
208 205 201 196 197 197 198 196 196 199 200 200 199 199 202 206 208 210 212 213 215 217 220 221 236 235 233 232 227 227 225 235
202 197 192 191 191 194 193 192 193 195 192 190 192 188 194 198 202 207 209 209 211 209 199 203 216 224 225 237 221 214 229 236
199 193 188 184 185 185 187 186 185 178 179 181 179 183 190 193 199 201 203 206 207 200 196 200 211 222 229 243 210 215 233 239
193 189 183 177 175 173 174 174 169 165 171 172 180 182 188 191 192 195 199 202 206 205 198 202 212 216 221 218 214 222 235 244
187 183 176 170 167 165 162 162 162 162 170 178 177 179 183 186 190 193 193 199 206 208 212 209 210 216 223 223 220 226 233 247
181 175 169 165 162 158 155 161 169 165 166 167 169 173 175 177 179 182 190 192 196 206 214 219 223 215 223 231 236 239 240 248
172 166 160 156 152 153 153 154 154 158 159 164 167 169 173 176 177 181 183 185 188 187 193 204 213 218 222 226 231 240 240 244
Wind_Speed_850mb
45 50 54 59 62 59 61 59 55 52 45 40 34 31 27 25 23 20 17 16 18 15 9 3 7 9 4 7 16 20 22 24
51 52 49 55 59 60 61 59 56 52 48 42 37 32 28 25 24 21 18 18 20 18 13 7 6 11 6 11 17 25 25 23
55 57 56 59 60 63 62 59 55 53 49 44 38 34 29 28 26 23 20 19 20 19 16 11 10 15 13 14 15 23 23 25
55 58 59 61 61 62 62 58 57 56 52 48 43 37 32 30 27 25 23 20 20 19 18 16 13 15 19 16 14 21 24 22
56 62 64 62 64 66 64 61 58 55 54 50 44 38 34 31 28 27 24 22 21 20 19 19 16 18 23 21 15 18 24 18
62 62 64 65 64 66 65 63 61 59 56 51 45 41 38 35 31 29 26 24 23 21 21 22 20 20 27 27 23 18 19 22
64 65 68 69 69 67 64 64 63 61 58 53 49 45 42 38 34 30 28 27 25 23 22 23 23 19 28 30 28 25 22 22
71 71 70 69 66 66 66 63 63 62 60 56 51 49 46 41 37 32 30 28 27 27 26 25 26 24 23 28 31 34 30 27
68 70 69 65 65 64 65 64 64 64 62 58 55 51 48 43 38 35 33 30 28 28 27 27 27 29 29 28 30 30 31 33
58 69 70 69 67 64 62 62 63 64 62 58 54 52 49 46 41 37 36 33 31 31 31 30 30 31 35 33 31 31 31 31
57 63 68 71 68 66 66 63 64 61 59 55 52 49 48 44 42 40 37 34 33 32 32 30 29 28 34 39 37 35 33 31
60 65 71 71 72 69 65 63 59 57 55 53 51 47 44 43 43 40 38 36 35 33 32 29 29 29 31 39 43 38 36 34
62 67 67 68 71 69 67 61 58 57 55 52 49 46 45 44 44 43 40 37 35 33 32 30 28 26 26 32 38 40 39 34
64 66 67 70 69 69 67 63 60 55 52 51 48 44 42 43 44 43 40 37 35 33 28 25 21 19 23 27 32 33 30 31
77 78 76 71 68 63 63 59 54 53 52 48 45 42 42 42 40 39 38 36 34 30 28 20 18 16 17 19 25 28 29 30
87 87 84 79 71 64 58 55 57 54 50 46 45 40 43 41 39 38 37 34 31 30 27 24 21 19 15 15 23 25 25 26
89 87 84 80 75 67 61 61 61 54 49 45 42 43 42 41 41 40 35 32 30 29 28 25 23 19 15 14 19 24 20 21
93 87 84 80 77 75 72 65 53 42 46 48 46 45 43 41 37 36 35 31 29 29 30 28 26 22 19 18 21 20 22 23
91 90 87 84 82 78 76 67 46 57 54 49 46 44 41 37 33 29 27 27 26 26 24 26 27 27 24 24 22 20 22 21
95 94 93 92 87 80 73 69 66 58 51 45 40 37 33 31 28 25 24 23 21 20 19 19 21 23 29 32 31 26 24 21
Wind_Direction_850mb
199 195 200 197 196 194 197 196 197 199 201 202 202 206 206 203 203 203 200 190 190 182 174 142 159 172 184 167 162 165 155 160
189 195 199 196 195 192 195 197 197 199 200 200 203 205 206 202 202 205 199 193 195 191 186 176 159 167 160 141 152 158 159 161
190 191 192 195 194 194 197 200 199 200 200 200 203 205 205 203 203 202 202 196 195 197 193 184 177 173 161 144 152 156 158 173
190 190 192 194 195 197 200 202 201 201 201 201 202 203 203 205 205 200 203 199 195 199 198 194 192 178 174 163 160 165 167 168
196 196 198 200 198 200 202 205 204 203 203 204 204 203 204 206 206 204 205 203 199 200 203 200 197 190 180 177 165 166 175 175
200 201 201 201 201 202 204 205 204 204 205 205 205 205 206 207 209 206 206 207 206 203 208 205 204 206 193 185 186 172 171 176
207 206 206 204 202 203 204 205 203 204 206 206 206 206 210 210 211 212 211 211 212 207 209 211 209 214 205 195 197 194 191 189
214 212 210 210 207 204 204 204 203 205 206 207 208 210 213 214 214 215 218 218 216 215 212 213 213 216 214 206 213 212 211 214
222 218 215 210 210 208 207 205 204 205 206 207 209 213 216 218 219 219 220 223 223 222 219 217 217 215 220 213 217 221 224 218
232 224 214 211 209 207 208 207 206 206 206 209 212 215 218 221 221 220 222 223 224 224 223 220 220 219 220 218 219 224 230 234
223 219 214 210 208 206 207 207 207 207 209 211 214 216 220 221 222 222 222 224 224 227 229 227 226 228 230 226 220 226 232 236
218 214 210 207 206 205 206 206 208 209 210 211 214 214 216 217 219 222 221 220 222 223 228 229 232 234 227 225 226 228 232 238
212 207 204 204 201 202 204 202 203 205 206 206 208 207 209 211 213 215 217 217 219 221 226 230 232 233 229 224 224 226 231 234
208 205 201 196 197 197 198 196 196 199 200 200 199 199 202 206 208 210 212 213 215 217 220 221 236 235 233 232 227 227 225 235
202 197 192 191 191 194 193 192 193 195 192 190 192 188 194 198 202 207 209 209 211 209 199 203 216 224 225 237 221 214 229 236
199 193 188 184 185 185 187 186 185 178 179 181 179 183 190 193 199 201 203 206 207 200 196 200 211 222 229 243 210 215 233 239
193 189 183 177 175 173 174 174 169 165 171 172 180 182 188 191 192 195 199 202 206 205 198 202 212 216 221 218 214 222 235 244
187 183 176 170 167 165 162 162 162 162 170 178 177 179 183 186 190 193 193 199 206 208 212 209 210 216 223 223 220 226 233 247
181 175 169 165 162 158 155 161 169 165 166 167 169 173 175 177 179 182 190 192 196 206 214 219 223 215 223 231 236 239 240 248
172 166 160 156 152 153 153 154 154 158 159 164 167 169 173 176 177 181 183 185 188 187 193 204 213 218 222 226 231 240 240 244